CW4525 Weather Reports


Display with metric or nautical units.
time (UTC)temp
F
wind
direction
speed
MPH
gust
MPH
rain 1hr
in
rain 24hr
in
rain mn
in
humidity
%
barometer
mb
20260509030039 44 221 2.0 6.0 0.00 0.00 0.00 66 1008.9
20260509024539 44 245 4.0 7.0 0.00 0.00 0.00 65 1008.9
20260509023037 45 227 4.0 7.0 0.00 0.00 0.00 64 1009.0
20260509021535 45 254 5.0 9.0 0.00 0.00 0.00 63 1008.7
20260509020034 46 244 5.0 8.0 0.00 0.00 0.00 62 1008.6
20260509014533 46 227 3.0 7.0 0.00 0.00 0.00 60 1008.4
20260509013040 46 250 4.0 8.0 0.00 0.00 0.00 59 1008.0
20260509011532 47 223 5.0 10.0 0.00 0.00 0.00 58 1008.0
20260509010031 47 229 5.0 9.0 0.00 0.00 0.00 57 1007.5
20260509004538 48 247 5.0 10.0 0.00 0.00 0.00 55 1007.5
20260509003030 48 270 5.0 13.0 0.00 0.00 0.00 54 1007.1
20260509001529 49 221 6.0 13.0 0.00 0.00 0.00 52 1006.9
20260509000028 49 275 6.0 12.0 0.00 0.00 0.00 51 1006.9
20260508234527 50 257 5.0 13.0 0.00 0.00 0.00 49 1006.4
20260508233027 51 281 6.0 14.0 0.00 0.00 0.00 48 1006.3
20260508231526 51 242 7.0 14.0 0.00 0.00 0.00 47 1006.1
20260508230026 52 284 7.0 16.0 0.00 0.00 0.00 45 1005.9
20260508224525 52 256 5.0 9.0 0.00 0.00 0.00 44 1005.8
20260508223033 53 271 4.0 9.0 0.00 0.00 0.00 42 1005.8
20260508221530 53 290 3.0 10.0 0.00 0.00 0.00 43 1005.7
20260508220034 54 293 5.0 11.0 0.00 0.00 0.00 40 1005.6
20260508214523 54 285 8.0 20.0 0.00 0.00 0.00 40 1005.6
20260508213029 54 234 7.0 12.0 0.00 0.00 0.00 39 1005.3
20260508211523 54 252 6.0 18.0 0.00 0.00 0.00 38 1005.2
20260508210022 56 256 9.0 20.0 0.00 0.00 0.00 36 1005.0
20260508204522 57 232 10.0 18.0 0.00 0.00 0.00 36 1004.8
20260508203019 55 295 7.0 15.0 0.00 0.00 0.00 40 1004.8
20260508201520 55 282 7.0 18.0 0.00 0.00 0.00 37 1004.8
20260508200018 55 227 6.0 12.0 0.00 0.00 0.00 37 1004.8
20260508194518 55 232 9.0 15.0 0.00 0.00 0.00 34 1004.7
20260508193018 55 276 5.0 18.0 0.00 0.00 0.00 36 1004.7
20260508191525 55 254 7.0 18.0 0.00 0.00 0.00 35 1004.8
20260508190017 54 288 7.0 16.0 0.00 0.00 0.00 34 1004.8
20260508184518 55 241 8.0 18.0 0.00 0.00 0.00 34 1004.9
20260508183015 54 265 10.0 19.0 0.00 0.00 0.00 35 1005.1
20260508181538 56 286 8.0 18.0 0.00 0.00 0.00 33 1004.8
20260508180015 54 277 9.0 23.0 0.00 0.00 0.00 35 1005.0
20260508174517 54 286 9.0 23.0 0.00 0.00 0.00 34 1004.8
20260508173012 55 319 8.0 20.0 0.00 0.00 0.00 35 1004.8
20260508171512 55 269 8.0 21.0 0.00 0.00 0.00 35 1004.8
20260508170014 55 284 7.0 19.0 0.00 0.00 0.00 37 1004.7
20260508164517 54 248 8.0 16.0 0.00 0.00 0.00 34 1004.8
20260508163011 55 237 10.0 20.0 0.00 0.00 0.00 34 1004.8
20260508161509 55 231 5.0 13.0 0.00 0.00 0.00 37 1004.7
20260508160011 55 275 10.0 18.0 0.00 0.00 0.00 35 1004.7
20260508154502 54 264 4.0 11.0 0.00 0.00 0.00 39 1004.8
20260508153108 52 219 5.0 12.0 0.00 0.00 0.00 43 1005.2
20260508151606 52 277 4.0 9.0 0.00 0.00 0.00 43 1005.2
20260508150057 52 271 4.0 8.0 0.00 0.00 0.00 43 1005.2
20260508144559 52 200 5.0 13.0 0.00 0.00 0.00 42 1005.2
20260508143054 50 251 6.0 11.0 0.00 0.00 0.00 47 1005.4
20260508141559 50 299 7.0 16.0 0.00 0.00 0.00 44 1005.7
20260508140055 50 262 8.0 13.0 0.00 0.00 0.00 45 1005.8
20260508134548 50 246 6.0 14.0 0.00 0.00 0.00 46 1005.8
20260508133051 50 194 7.0 16.0 0.00 0.00 0.00 46 1005.8
20260508131552 50 242 11.0 18.0 0.00 0.00 0.00 46 1005.8
20260508130044 48 279 9.0 19.0 0.00 0.00 0.00 47 1005.8
20260508124540 48 242 9.0 18.0 0.00 0.00 0.00 48 1005.8
20260508123038 47 249 8.0 18.0 0.00 0.00 0.00 52 1006.0
20260508121534 46 294 6.0 14.0 0.00 0.00 0.00 54 1005.8
20260508120037 45 261 7.0 13.0 0.00 0.00 0.00 57 1005.8
20260508114528 45 275 7.0 13.0 0.00 0.00 0.00 58 1005.8
20260508113026 42 275 4.0 10.0 0.00 0.00 0.00 64 1005.7
20260508111521 40 246 5.0 9.0 0.00 0.00 0.00 67 1005.7
20260508110020 39 263 5.0 10.0 0.00 0.00 0.00 68 1005.5
20260508104518 39 246 6.0 10.0 0.00 0.00 0.00 68 1005.4
20260508103026 39 212 5.0 8.0 0.00 0.00 0.00 68 1005.2
20260508101518 39 252 3.0 7.0 0.00 0.00 0.00 67 1004.9
20260508100012 39 229 4.0 7.0 0.00 0.00 0.00 67 1004.7
20260508094510 39 222 4.0 7.0 0.00 0.00 0.00 67 1004.7
20260508093009 38 241 4.0 7.0 0.00 0.00 0.00 67 1004.5
20260508091508 38 232 3.0 7.0 0.00 0.00 0.00 68 1004.4
20260508090008 38 190 3.0 8.0 0.00 0.00 0.00 68 1004.3
20260508084505 38 244 3.0 6.0 0.00 0.00 0.00 67 1004.2
20260508083004 38 235 4.0 8.0 0.00 0.00 0.00 68 1004.4
20260508081502 38 209 5.0 9.0 0.00 0.00 0.00 68 1004.2
20260508080001 38 245 3.0 8.0 0.00 0.00 0.00 69 1004.0
20260508074600 38 237 5.0 7.0 0.00 0.00 0.00 69 1003.7
20260508073055 38 241 2.0 5.0 0.00 0.00 0.00 70 1003.7
20260508071554 39 240 1.0 4.0 0.00 0.00 0.00 69 1003.6
20260508070053 39 238 1.0 3.0 0.00 0.00 0.00 69 1003.6
20260508064556 39 238 1.0 3.0 0.00 0.00 0.00 69 1003.7
20260508063050 39 238 1.0 3.0 0.00 0.00 0.00 69 1003.6
20260508061554 40 238 0.0 4.0 0.00 0.00 0.00 67 1003.6
20260508060045 40 235 2.0 4.0 0.00 0.00 0.00 66 1003.9
20260508054544 41 233 0.0 0.0 0.00 0.00 0.00 65 1004.1
20260508053040 41 233 0.0 0.0 0.00 0.00 0.00 65 1004.2
20260508051538 42 233 1.0 4.0 0.00 0.00 0.00 64 1004.3
20260508050040 42 244 1.0 5.0 0.00 0.00 0.00 62 1004.3
20260508044534 42 244 1.0 4.0 0.00 0.01 0.00 62 1004.5
20260508043032 43 244 0.0 2.0 0.00 0.01 0.00 61 1004.6
20260508041530 44 244 0.0 4.0 0.00 0.01 0.00 60 1004.6
20260508040036 44 259 1.0 6.0 0.00 0.01 0.00 58 1004.6
20260508034528 45 225 1.0 4.0 0.00 0.01 0.01 57 1004.6
20260508033025 45 225 0.0 2.0 0.00 0.01 0.01 57 1004.6
20260508031529 46 221 1.0 6.0 0.00 0.01 0.01 56 1004.6